North Las Vegas, NV

9:37 PM PDT on April 26, 2017 (GMT -0700)
North Las Vegas

Weather History for KVGT - January, 2014

Change the Weather History Date:

Friday, January 3, 2014

  Actual Average Record
Temperature  
Mean Temperature 48 °F 46 °F  
Max Temperature 60 °F 56 °F 66 °F (2012)
Min Temperature 37 °F 37 °F 29 °F (2015)
Degree Days  
Heating Degree Days 16 19  
Month to date heating degree days 57  
Since 1 July heating degree days 937  
Cooling Degree Days 0 0  
Month to date cooling degree days 0  
Year to date cooling degree days 0  
Moisture  
Dew Point 24 °F    
Average Humidity 41    
Maximum Humidity 57    
Minimum Humidity 22    
Precipitation  
Precipitation 0.00 in 0.03 in 0.78 in (2005)
Month to date precipitation 0.08  
Year to date precipitation 0.08  
Sea Level Pressure  
Sea Level Pressure 30.07 in    
Wind  
Wind Speed 3 mph (NW)    
Max Wind Speed 6 mph    
Max Gust Speed -    
Visibility 10 miles    
Events      
T = Trace of Precipitation, MM = Missing Value Source: NWS Daily Summary

Daily Weather History Graph

Daily Weather History Graph

Search for Another Location

Airport or City:

Trip Planner

Search our weather history database for the weather conditions in past years. The results will help you decide how hot, cold, wet, or windy it might be!

Date:

Astronomy

Jan. 03, 2014 Rise Set
Actual Time 6:52 AM PST 4:38 PM PST
Civil Twilight 6:23 AM PST 5:07 PM PST
Nautical Twilight 5:51 AM PST 5:39 PM PST
Astronomical Twilight 5:20 AM PST 6:10 PM PST
Moon 8:26 AM PST (1/3) 7:46 PM PST (1/3)
Length of Visible Light 10h 43m
Length of Day
9h 46m
Waxing Crescent, 8% of the Moon is Illuminated
Jan 3
Waxing Crescent
Jan 7
First Quarter
Jan 15
Full
Jan 23
Last Quarter
Jan 30
New

Hourly Weather History & Observations

Time (PST) Temp. Windchill Dew Point Humidity Pressure Visibility Wind Dir Wind Speed Gust Speed Precip Events Conditions
12:53 AM 41.0 °F 38.0 °F 25.0 °F 53% 30.15 in 10.0 mi WNW 4.6 mph - N/A   Clear
1:53 AM 42.1 °F 39.2 °F 24.1 °F 49% 30.15 in 10.0 mi NNW 4.6 mph - N/A   Clear
2:53 AM 41.0 °F 37.1 °F 24.1 °F 51% 30.14 in 10.0 mi WNW 5.8 mph - N/A   Clear
3:53 AM 39.0 °F - 24.1 °F 55% 30.13 in 10.0 mi Calm Calm - N/A   Clear
4:53 AM 37.9 °F - 24.1 °F 57% 30.13 in 10.0 mi Calm Calm - N/A   Clear
5:53 AM 37.9 °F 35.5 °F 24.1 °F 57% 30.14 in 10.0 mi NNW 3.5 mph - N/A   Clear
6:53 AM 37.9 °F 34.4 °F 24.1 °F 57% 30.16 in 10.0 mi WNW 4.6 mph - N/A   Clear
7:53 AM 41.0 °F - 25.0 °F 53% 30.17 in 10.0 mi Calm Calm - N/A   Clear
8:53 AM 46.9 °F - 26.1 °F 44% 30.17 in 10.0 mi Calm Calm - N/A   Clear
9:53 AM 51.1 °F - 23.0 °F 33% 30.16 in 10.0 mi SE 3.5 mph - N/A   Clear
10:53 AM 53.1 °F - 24.1 °F 32% 30.13 in 10.0 mi Calm Calm - N/A   Clear
11:53 AM 55.9 °F - 21.9 °F 27% 30.08 in 10.0 mi Calm Calm - N/A   Clear
12:53 PM 57.9 °F - 21.9 °F 25% 30.05 in 10.0 mi Calm Calm - N/A   Clear
1:53 PM 60.1 °F - 21.0 °F 22% 30.02 in 10.0 mi Calm Calm - N/A   Clear
2:53 PM 60.1 °F - 21.0 °F 22% 30.00 in 10.0 mi SE 3.5 mph - N/A   Clear
3:53 PM 57.9 °F - 21.0 °F 24% 30.00 in 10.0 mi ESE 3.5 mph - N/A   Clear
4:53 PM 57.0 °F - 21.0 °F 25% 29.99 in 10.0 mi East 3.5 mph - N/A   Clear
5:53 PM 53.1 °F - 21.9 °F 30% 30.00 in 10.0 mi Calm Calm - N/A   Clear
6:53 PM 50.0 °F - 24.1 °F 36% 30.01 in 10.0 mi WNW 5.8 mph - N/A   Clear
7:53 PM 48.0 °F - 26.1 °F 42% 30.00 in 10.0 mi West 5.8 mph - N/A   Clear
8:53 PM 45.0 °F 43.5 °F 25.0 °F 46% 30.01 in 10.0 mi NW 3.5 mph - N/A   Clear
9:53 PM 45.0 °F 41.8 °F 25.0 °F 46% 30.00 in 10.0 mi NW 5.8 mph - N/A   Clear
10:53 PM 43.0 °F - 25.0 °F 49% 29.99 in 10.0 mi Calm Calm - N/A   Clear
11:53 PM 43.0 °F 40.3 °F 25.0 °F 49% 29.97 in 10.0 mi NW 4.6 mph - N/A   Clear